Time,TemperatureF,DewpointF,PressureIn,WindDirection,WindDirectionDegrees,WindSpeedMPH,WindSpeedGustMPH,Humidity,HourlyPrecipIn,Conditions,Clouds,dailyrainin,SoftwareType,DateUTC
2013-08-21 00:03:00,76.1,70.0,29.80,SSW,204,0.0,-999.0,81,-99.99,,,0.00,weatherlink.com 1.10,2013-08-21 05:03:00,
2013-08-21 00:18:00,76.0,70.0,29.79,SE,145,0.0,-999.0,81,-99.99,,,0.00,weatherlink.com 1.10,2013-08-21 05:18:00,
2013-08-21 00:33:00,75.8,70.0,29.79,SSW,193,0.0,-999.0,82,-99.99,,,0.00,weatherlink.com 1.10,2013-08-21 05:33:00,
2013-08-21 00:48:00,75.6,70.0,29.79,SSW,194,0.0,-999.0,83,-99.99,,,0.00,weatherlink.com 1.10,2013-08-21 05:48:00,
2013-08-21 01:03:00,75.3,70.0,29.79,South,183,0.0,-999.0,83,-99.99,,,0.00,weatherlink.com 1.10,2013-08-21 06:03:00,
2013-08-21 01:18:00,75.1,70.0,29.79,SSE,158,0.0,-999.0,84,-99.99,,,0.00,weatherlink.com 1.10,2013-08-21 06:18:00,
2013-08-21 01:33:00,75.1,70.0,29.79,SSW,208,1.0,-999.0,85,-99.99,,,0.00,weatherlink.com 1.10,2013-08-21 06:33:00,
2013-08-21 01:48:00,75.1,70.0,29.79,South,191,4.0,-999.0,85,-99.99,,,0.00,weatherlink.com 1.10,2013-08-21 06:48:00,
2013-08-21 02:03:00,75.1,70.0,29.78,SSW,200,0.0,-999.0,85,-99.99,,,0.00,weatherlink.com 1.10,2013-08-21 07:03:00,
2013-08-21 02:18:00,75.1,70.0,29.78,South,176,0.0,-999.0,85,-99.99,,,0.00,weatherlink.com 1.10,2013-08-21 07:18:00,
2013-08-21 02:33:00,74.9,70.0,29.79,SSE,160,0.0,-999.0,85,-99.99,,,0.00,weatherlink.com 1.10,2013-08-21 07:33:00,
2013-08-21 02:48:00,75.1,70.0,29.79,SW,226,7.0,-999.0,84,-99.99,,,0.00,weatherlink.com 1.10,2013-08-21 07:48:00,
2013-08-21 03:03:00,75.3,70.0,29.78,South,176,5.0,-999.0,83,-99.99,,,0.00,weatherlink.com 1.10,2013-08-21 08:03:00,
2013-08-21 03:18:00,75.3,70.0,29.78,SSW,193,0.0,-999.0,83,-99.99,,,0.00,weatherlink.com 1.10,2013-08-21 08:18:00,
2013-08-21 03:33:00,75.3,70.0,29.78,South,186,0.0,-999.0,83,-99.99,,,0.00,weatherlink.com 1.10,2013-08-21 08:33:00,
2013-08-21 03:48:00,75.1,70.0,29.77,SSW,208,3.0,-999.0,83,-99.99,,,0.00,weatherlink.com 1.10,2013-08-21 08:48:00,
2013-08-21 04:03:00,74.9,69.0,29.77,SSW,195,4.0,-999.0,83,-99.99,,,0.00,weatherlink.com 1.10,2013-08-21 09:03:00,
2013-08-21 04:18:00,74.7,69.0,29.77,SSW,203,5.0,-999.0,83,-99.99,,,0.00,weatherlink.com 1.10,2013-08-21 09:18:00,
2013-08-21 04:33:00,74.4,69.0,29.77,SSW,207,3.0,-999.0,83,-99.99,,,0.00,weatherlink.com 1.10,2013-08-21 09:33:00,
2013-08-21 04:48:00,74.2,69.0,29.77,South,187,0.0,-999.0,84,-99.99,,,0.00,weatherlink.com 1.10,2013-08-21 09:48:00,
2013-08-21 05:03:00,73.9,69.0,29.78,South,190,0.0,-999.0,85,-99.99,,,0.00,weatherlink.com 1.10,2013-08-21 10:03:00,
2013-08-21 05:18:00,73.5,69.0,29.78,SSE,168,0.0,-999.0,85,-99.99,,,0.00,weatherlink.com 1.10,2013-08-21 10:18:00,
2013-08-21 05:33:00,73.2,69.0,29.78,South,179,0.0,-999.0,86,-99.99,,,0.00,weatherlink.com 1.10,2013-08-21 10:33:00,
2013-08-21 05:48:00,72.8,69.0,29.78,South,190,1.0,-999.0,87,-99.99,,,0.00,weatherlink.com 1.10,2013-08-21 10:48:00,
2013-08-21 06:03:00,72.5,69.0,29.78,SSE,162,0.0,-999.0,87,-99.99,,,0.00,weatherlink.com 1.10,2013-08-21 11:03:00,
2013-08-21 06:18:00,72.5,69.0,29.79,South,172,0.0,-999.0,88,-99.99,,,0.00,weatherlink.com 1.10,2013-08-21 11:18:00,
2013-08-21 06:33:00,72.3,69.0,29.79,SSE,165,2.0,-999.0,88,-99.99,,,0.00,weatherlink.com 1.10,2013-08-21 11:33:00,
2013-08-21 06:48:00,72.1,68.0,29.79,SSW,203,3.0,-999.0,88,-99.99,,,0.00,weatherlink.com 1.10,2013-08-21 11:48:00,
2013-08-21 07:03:00,72.1,68.0,29.79,SSW,198,0.0,-999.0,88,-99.99,,,0.00,weatherlink.com 1.10,2013-08-21 12:03:00,
2013-08-21 07:18:00,72.5,69.0,29.79,SSE,168,4.0,-999.0,87,-99.99,,,0.00,weatherlink.com 1.10,2013-08-21 12:18:00,
2013-08-21 07:33:00,72.8,68.0,29.80,WSW,245,3.0,-999.0,86,-99.99,,,0.00,weatherlink.com 1.10,2013-08-21 12:33:00,
2013-08-21 07:48:00,73.3,69.0,29.80,SSW,205,0.0,-999.0,86,-99.99,,,0.00,weatherlink.com 1.10,2013-08-21 12:48:00,
2013-08-21 08:03:00,73.7,69.0,29.80,SSW,192,0.0,-999.0,85,-99.99,,,0.00,weatherlink.com 1.10,2013-08-21 13:03:00,
2013-08-21 08:18:00,74.2,69.0,29.80,South,188,0.0,-999.0,84,-99.99,,,0.00,weatherlink.com 1.10,2013-08-21 13:18:00,
2013-08-21 08:33:00,74.9,69.0,29.80,SSW,207,0.0,-999.0,83,-99.99,,,0.00,weatherlink.com 1.10,2013-08-21 13:33:00,
2013-08-21 08:48:00,75.6,70.0,29.81,SSW,207,0.0,-999.0,82,-99.99,,,0.00,weatherlink.com 1.10,2013-08-21 13:48:00,
2013-08-21 09:03:00,76.1,70.0,29.82,South,180,2.0,-999.0,81,-99.99,,,0.00,weatherlink.com 1.10,2013-08-21 14:03:00,
2013-08-21 09:18:00,76.7,70.0,29.81,SW,216,0.0,-999.0,80,-99.99,,,0.00,weatherlink.com 1.10,2013-08-21 14:18:00,
2013-08-21 09:33:00,77.0,70.0,29.80,SSW,196,4.0,-999.0,79,-99.99,,,0.00,weatherlink.com 1.10,2013-08-21 14:33:00,
2013-08-21 09:48:00,77.6,71.0,29.80,South,172,0.0,-999.0,79,-99.99,,,0.00,weatherlink.com 1.10,2013-08-21 14:48:00,
2013-08-21 10:03:00,78.5,71.0,29.81,SW,227,0.0,-999.0,77,-99.99,,,0.00,weatherlink.com 1.10,2013-08-21 15:03:00,
2013-08-21 10:18:00,79.4,72.0,29.81,SW,234,0.0,-999.0,77,-99.99,,,0.00,weatherlink.com 1.10,2013-08-21 15:18:00,
2013-08-21 10:33:00,79.8,72.0,29.81,SSW,195,2.0,-999.0,76,-99.99,,,0.00,weatherlink.com 1.10,2013-08-21 15:33:00,
2013-08-21 10:48:00,80.3,71.0,29.81,South,189,0.0,-999.0,74,-99.99,,,0.00,weatherlink.com 1.10,2013-08-21 15:48:00,
2013-08-21 11:03:00,80.5,72.0,29.81,South,190,0.0,-999.0,74,-99.99,,,0.00,weatherlink.com 1.10,2013-08-21 16:03:00,
2013-08-21 11:18:00,79.8,72.0,29.81,South,181,0.0,-999.0,76,-99.99,,,0.00,weatherlink.com 1.10,2013-08-21 16:18:00,
2013-08-21 11:33:00,79.2,71.0,29.82,South,184,0.0,-999.0,77,-99.99,,,0.00,weatherlink.com 1.10,2013-08-21 16:33:00,
2013-08-21 11:48:00,79.2,71.0,29.82,South,188,0.0,-999.0,76,-99.99,,,0.00,weatherlink.com 1.10,2013-08-21 16:48:00,
2013-08-21 12:03:00,80.5,72.0,29.83,SW,227,0.0,-999.0,76,-99.99,,,0.00,weatherlink.com 1.10,2013-08-21 17:03:00,
2013-08-21 12:18:00,81.6,72.0,29.83,WNW,289,0.0,-999.0,72,-99.99,,,0.00,weatherlink.com 1.10,2013-08-21 17:18:00,
2013-08-21 12:33:00,82.8,73.0,29.83,WSW,245,0.0,-999.0,71,-99.99,,,0.00,weatherlink.com 1.10,2013-08-21 17:33:00,
2013-08-21 12:48:00,81.6,72.0,29.83,SSW,202,0.0,-999.0,73,-99.99,,,0.00,weatherlink.com 1.10,2013-08-21 17:48:00,
2013-08-21 13:03:00,81.4,73.0,29.84,South,169,3.0,-999.0,75,-99.99,,,0.00,weatherlink.com 1.10,2013-08-21 18:03:00,
2013-08-21 13:18:00,81.2,73.0,29.84,West,279,0.0,-999.0,75,-99.99,,,0.00,weatherlink.com 1.10,2013-08-21 18:18:00,
2013-08-21 13:33:00,82.0,73.0,29.84,SW,219,1.0,-999.0,75,-99.99,,,0.00,weatherlink.com 1.10,2013-08-21 18:33:00,
2013-08-21 13:48:00,83.0,73.0,29.84,West,281,0.0,-999.0,72,-99.99,,,0.00,weatherlink.com 1.10,2013-08-21 18:48:00,
2013-08-21 14:03:00,83.4,74.0,29.83,West,281,0.0,-999.0,72,-99.99,,,0.00,weatherlink.com 1.10,2013-08-21 19:03:00,
2013-08-21 14:19:00,84.7,74.0,29.83,West,281,0.0,-999.0,71,-99.99,,,0.00,weatherlink.com 1.10,2013-08-21 19:19:00,
2013-08-21 14:34:00,83.8,73.0,29.83,ENE,63,0.0,-999.0,70,-99.99,,,0.00,weatherlink.com 1.10,2013-08-21 19:34:00,
2013-08-21 14:49:00,83.0,73.0,29.84,ENE,63,0.0,-999.0,72,-99.99,,,0.00,weatherlink.com 1.10,2013-08-21 19:49:00,
2013-08-21 15:04:00,82.4,74.0,29.85,ENE,63,0.0,-999.0,75,-99.99,,,0.00,weatherlink.com 1.10,2013-08-21 20:04:00,
2013-08-21 15:19:00,81.6,74.0,29.86,ENE,63,0.0,-999.0,78,-99.99,,,0.00,weatherlink.com 1.10,2013-08-21 20:19:00,
2013-08-21 15:34:00,80.1,73.0,29.87,SW,227,0.0,-999.0,78,-99.99,,,0.00,weatherlink.com 1.10,2013-08-21 20:34:00,
2013-08-21 15:49:00,77.9,69.0,29.86,South,185,0.0,-999.0,73,-99.99,,,0.00,weatherlink.com 1.10,2013-08-21 20:49:00,
2013-08-21 16:04:00,77.4,69.0,29.87,South,185,0.0,-999.0,76,-99.99,,,0.00,weatherlink.com 1.10,2013-08-21 21:04:00,
2013-08-21 16:19:00,77.6,71.0,29.88,South,185,0.0,-999.0,79,-99.99,,,0.00,weatherlink.com 1.10,2013-08-21 21:19:00,
2013-08-21 16:34:00,78.6,72.0,29.87,WSW,243,0.0,-999.0,81,-99.99,,,0.00,weatherlink.com 1.10,2013-08-21 21:34:00,
2013-08-21 16:49:00,80.1,74.0,29.87,West,269,0.0,-999.0,81,-99.99,,,0.00,weatherlink.com 1.10,2013-08-21 21:49:00,
2013-08-21 17:04:00,81.1,75.0,29.86,North,350,0.0,-999.0,81,-99.99,,,0.01,weatherlink.com 1.10,2013-08-21 22:04:00,
2013-08-21 17:18:00,81.6,75.0,29.85,NNW,344,0.0,-999.0,79,-99.99,,,0.01,weatherlink.com 1.10,2013-08-21 22:18:00,
2013-08-21 17:34:00,82.6,75.0,29.85,NW,315,0.0,-999.0,77,-99.99,,,0.01,weatherlink.com 1.10,2013-08-21 22:34:00,
2013-08-21 17:49:00,82.8,75.0,29.84,NE,37,0.0,-999.0,76,-99.99,,,0.01,weatherlink.com 1.10,2013-08-21 22:49:00,
2013-08-21 18:04:00,82.6,74.0,29.84,NNE,27,0.0,-999.0,76,-99.99,,,0.01,weatherlink.com 1.10,2013-08-21 23:04:00,
2013-08-21 18:19:00,82.2,74.0,29.84,NE,41,0.0,-999.0,77,-99.99,,,0.01,weatherlink.com 1.10,2013-08-21 23:19:00,
2013-08-21 18:34:00,82.4,74.0,29.83,NE,40,0.0,-999.0,76,-99.99,,,0.01,weatherlink.com 1.10,2013-08-21 23:34:00,
2013-08-21 18:49:00,82.4,74.0,29.84,North,0,0.0,-999.0,76,-99.99,,,0.01,weatherlink.com 1.10,2013-08-21 23:49:00,
2013-08-21 19:04:00,82.0,74.0,29.85,North,0,0.0,-999.0,77,-99.99,,,0.01,weatherlink.com 1.10,2013-08-22 00:04:00,
2013-08-21 19:19:00,81.1,74.0,29.86,North,0,0.0,-999.0,80,-99.99,,,0.01,weatherlink.com 1.10,2013-08-22 00:19:00,
2013-08-21 19:34:00,79.4,73.0,29.88,SSW,200,0.0,-999.0,81,-99.99,,,0.01,weatherlink.com 1.10,2013-08-22 00:34:00,
2013-08-21 19:49:00,77.9,72.0,29.88,SSW,200,0.0,-999.0,82,-99.99,,,0.01,weatherlink.com 1.10,2013-08-22 00:49:00,
2013-08-21 20:04:00,77.2,72.0,29.90,SSW,200,0.0,-999.0,84,-99.99,,,0.01,weatherlink.com 1.10,2013-08-22 01:04:00,
2013-08-21 20:19:00,76.8,72.0,29.90,SSW,200,0.0,-999.0,85,-99.99,,,0.01,weatherlink.com 1.10,2013-08-22 01:19:00,
2013-08-21 20:34:00,76.5,72.0,29.90,SSW,200,0.0,-999.0,86,-99.99,,,0.01,weatherlink.com 1.10,2013-08-22 01:34:00,
2013-08-21 20:49:00,76.3,72.0,29.90,SSW,200,0.0,-999.0,87,-99.99,,,0.01,weatherlink.com 1.10,2013-08-22 01:49:00,
2013-08-21 21:04:00,76.1,72.0,29.91,SSW,200,0.0,-999.0,88,-99.99,,,0.01,weatherlink.com 1.10,2013-08-22 02:04:00,
2013-08-21 21:19:00,75.6,72.0,29.91,SSW,200,0.0,-999.0,89,-99.99,,,0.01,weatherlink.com 1.10,2013-08-22 02:19:00,
2013-08-21 21:34:00,75.1,72.0,29.92,SSW,200,0.0,-999.0,89,-99.99,,,0.01,weatherlink.com 1.10,2013-08-22 02:34:00,
2013-08-21 21:49:00,74.6,72.0,29.91,SSW,200,0.0,-999.0,90,-99.99,,,0.01,weatherlink.com 1.10,2013-08-22 02:49:00,
2013-08-21 22:04:00,74.2,72.0,29.92,SSW,200,0.0,-999.0,91,-99.99,,,0.01,weatherlink.com 1.10,2013-08-22 03:04:00,
2013-08-21 22:19:00,74.0,72.0,29.93,SSW,200,0.0,-999.0,92,-99.99,,,0.01,weatherlink.com 1.10,2013-08-22 03:19:00,
2013-08-21 22:34:00,73.7,71.0,29.93,SSW,200,0.0,-999.0,92,-99.99,,,0.01,weatherlink.com 1.10,2013-08-22 03:34:00,
2013-08-21 22:49:00,73.3,71.0,29.93,SSW,200,0.0,-999.0,92,-99.99,,,0.01,weatherlink.com 1.10,2013-08-22 03:49:00,
2013-08-21 23:04:00,73.0,71.0,29.93,SSW,200,0.0,-999.0,92,-99.99,,,0.01,weatherlink.com 1.10,2013-08-22 04:04:00,
2013-08-21 23:19:00,72.7,70.0,29.93,SSW,200,0.0,-999.0,92,-99.99,,,0.01,weatherlink.com 1.10,2013-08-22 04:19:00,
2013-08-21 23:34:00,72.7,70.0,29.92,SSW,200,0.0,-999.0,92,-99.99,,,0.01,weatherlink.com 1.10,2013-08-22 04:34:00,
2013-08-21 23:49:00,72.5,70.0,29.92,South,187,0.0,-999.0,92,-99.99,,,0.01,weatherlink.com 1.10,2013-08-22 04:49:00,